Flag for France Weather past 2 weeks in Amiens, France

41 °F


Feels Like: 38 °F
Forecast: 38 / 48 °F
Wind: 5 mph from Southeast

Location: Beauvais Airport

Current Time: Nov 27, 2015 at 11:08:44 AM

Latest Report: Nov 27, 2015 at 10:30 AM

Visibility: N/A

Pressure: 30.07 "Hg

Humidity: 93%

Dew point: 39 °F

Location of AmiensLocation

Historic Weather in Amiens — Graph


Amiens temperature yesterday

Maximum temperature yesterday: 50 °F (at 1:00 PM)
Minimum temperature yesterday: 30 °F (at 8:30 AM)
Average temperature yesterday: 39 °F

Past Weeks' High & Low Weather Summary

High64 °F (Nov 15, 3:00 PM)100% (Nov 20, 12:30 AM)30.42 "Hg (Nov 20, 12:30 AM)
Low27 °F (Nov 23, 7:30 AM)51% (Nov 13, 2:30 PM)29.53 "Hg (Nov 21, 5:00 AM)
Average48 °F85%30.03 "Hg
* Reported Nov 12 10:00 AM — Nov 27 10:00 AM, Amiens, Weather by CustomWeather, © 2015

Note: Actual official high and low records may vary slightly from our data, if they occured in-between our weather recording intervals... More about our weather records


Amiens weather history for previous 24 hours

Time TempWeatherWind HumidityBarometerVisibility
10:00 AM
Fri, Nov 27
39 °FOvercast.2 mph93%30.07 "HgN/A
9:30 AM37 °FOvercast.5 mph100%30.07 "Hg4 mi
9:00 AM36 °FOvercast.2 mph100%30.07 "Hg5 mi
8:00 AM34 °FFog.6 mph100%30.09 "Hg2 mi
7:30 AM32 °FIce fog.3 mph100%30.09 "Hg3 mi
7:00 AM32 °FIce fog.No wind100%30.09 "Hg3 mi
6:30 AM32 °FIce fog.No wind100%30.09 "Hg3 mi
6:00 AM32 °FFog.No wind93%30.09 "Hg4 mi
5:30 AM30 °FIce fog.No wind100%30.09 "Hg2 mi
5:00 AM30 °FIce fog.No wind93%30.12 "Hg1 mi
4:30 AM28 °FIce fog.No wind100%30.12 "Hg1 mi
4:00 AM30 °FIce fog.No wind93%30.12 "Hg1 mi
3:30 AM30 °FIce fog.No wind93%30.12 "Hg1 mi
3:00 AM30 °FIce fog.No wind93%30.15 "Hg1 mi
2:30 AM30 °FIce fog.No wind100%30.15 "Hg1 mi
2:00 AM30 °FIce fog.No wind100%30.15 "Hg1 mi
1:30 AM30 °FIce fog.No wind93%30.18 "Hg1 mi
1:00 AM30 °FPassing clouds.No wind93%30.18 "Hg4 mi
12:30 AM30 °FIce fog.1 mph100%30.18 "Hg3 mi
11:30 PM
Thu, Nov 26
32 °FLight fog.No wind93%30.18 "Hg3 mi
11:00 PM34 °FFog.No wind100%30.18 "Hg2 mi
10:30 PM34 °FFog.No wind100%30.18 "Hg3 mi
9:30 PM34 °FClear.3 mph100%30.18 "Hg10 mi
9:00 PM34 °FClear.5 mph87%30.18 "Hg10 mi
8:30 PM34 °FClear.3 mph93%30.18 "Hg10 mi
8:00 PM37 °FClear.2 mph93%30.18 "Hg10 mi
7:30 PM37 °FPassing clouds.5 mph87%30.18 "HgN/A
7:00 PM39 °FClear.2 mph87%30.15 "Hg10 mi
6:30 PM41 °FClear.2 mph87%30.15 "Hg10 mi
6:00 PM43 °FClear.1 mph87%30.15 "Hg10 mi
5:30 PM41 °FClear.3 mph93%30.15 "Hg10 mi
5:00 PM41 °FClear.5 mph87%30.12 "Hg10 mi
4:30 PM43 °FPassing clouds.5 mph81%30.12 "HgN/A
4:00 PM48 °FPassing clouds.7 mph71%30.12 "HgN/A
3:30 PM48 °FPassing clouds.6 mph71%30.12 "HgN/A
3:00 PM50 °FPassing clouds.7 mph67%30.12 "HgN/A
2:30 PM48 °FPassing clouds.8 mph71%30.12 "HgN/A
2:00 PM50 °FBroken clouds.8 mph71%30.12 "HgN/A
1:30 PM50 °FScattered clouds.9 mph71%30.12 "HgN/A
1:00 PM50 °FPassing clouds.8 mph71%30.12 "HgN/A
12:30 PM48 °FPassing clouds.7 mph76%30.12 "HgN/A
12:00 PM46 °FSunny.6 mph87%30.12 "Hg10 mi
11:30 AM45 °FPassing clouds.3 mph87%30.09 "HgN/A
11:00 AM43 °FPassing clouds.3 mph87%30.09 "HgN/A
Weather by CustomWeather, © 2015

See weather overviewHow to use our weather pages